TimeEDT,TemperatureF,Dew PointF,Humidity,Sea Level PressureIn,VisibilityMPH,Wind Direction,Wind SpeedMPH,Gust SpeedMPH,PrecipitationIn,Events,Conditions,WindDirDegrees,DateUTC
12:45 AM,77.0,71.6,83,30.27,10.0,West,5.8,-,N/A,,Scattered Clouds,260,2013-07-15 04:45:00
1:45 AM,77.0,71.6,83,30.26,10.0,West,4.6,-,N/A,,Scattered Clouds,270,2013-07-15 05:45:00
2:45 AM,75.2,73.4,94,30.26,10.0,West,6.9,-,N/A,,Scattered Clouds,280,2013-07-15 06:45:00
3:45 AM,75.2,71.6,89,30.26,10.0,West,6.9,-,N/A,,Mostly Cloudy,260,2013-07-15 07:45:00
4:45 AM,75.2,71.6,89,30.26,10.0,WNW,6.9,-,N/A,,Mostly Cloudy,290,2013-07-15 08:45:00
5:45 AM,75.2,69.8,83,30.26,15.0,West,5.8,-,N/A,,Mostly Cloudy,260,2013-07-15 09:45:00
6:45 AM,77.0,71.6,83,30.26,15.0,WSW,9.2,-,N/A,,Mostly Cloudy,250,2013-07-15 10:45:00
7:45 AM,77.0,71.6,83,30.27,15.0,SW,9.2,-,N/A,,Mostly Cloudy,230,2013-07-15 11:45:00
8:45 AM,78.8,73.4,83,30.27,15.0,West,6.9,-,N/A,,Mostly Cloudy,260,2013-07-15 12:45:00
9:45 AM,82.4,73.4,74,30.26,15.0,West,6.9,-,N/A,,Mostly Cloudy,260,2013-07-15 13:45:00
10:45 AM,84.2,73.4,70,30.26,15.0,Calm,Calm,-,N/A,,Scattered Clouds,0,2013-07-15 14:45:00
11:45 AM,87.8,73.4,62,30.25,15.0,Calm,Calm,-,N/A,,Scattered Clouds,0,2013-07-15 15:45:00
1:45 PM,89.6,75.2,62,30.22,15.0,NNW,6.9,-,N/A,,Scattered Clouds,340,2013-07-15 17:45:00
2:45 PM,91.4,75.2,59,30.21,15.0,West,9.2,-,N/A,,Scattered Clouds,280,2013-07-15 18:45:00
3:45 PM,91.4,75.2,59,30.20,15.0,Variable,5.8,-,N/A,,Scattered Clouds,0,2013-07-15 19:45:00
4:45 PM,91.4,73.4,55,30.19,15.0,Variable,5.8,-,N/A,,Scattered Clouds,0,2013-07-15 20:45:00
5:45 PM,91.4,71.6,52,30.18,15.0,NNE,8.1,-,N/A,,Scattered Clouds,30,2013-07-15 21:45:00
6:45 PM,89.6,71.6,55,30.18,15.0,North,5.8,-,N/A,,Scattered Clouds,10,2013-07-15 22:45:00
7:45 PM,87.8,75.2,66,30.18,15.0,Calm,Calm,-,N/A,,Scattered Clouds,0,2013-07-15 23:45:00
8:45 PM,82.4,75.2,79,30.18,10.0,NNW,5.8,-,N/A,,Mostly Cloudy,330,2013-07-16 00:45:00
9:45 PM,80.6,75.2,84,30.19,10.0,NNW,4.6,-,N/A,,Mostly Cloudy,340,2013-07-16 01:45:00
10:45 PM,77.0,75.2,94,30.19,10.0,NW,5.8,-,N/A,,Mostly Cloudy,320,2013-07-16 02:45:00
11:45 PM,77.0,73.4,89,30.20,10.0,Calm,Calm,-,N/A,,Clear,0,2013-07-16 03:45:00